Погода в Пунтаренасе

Коста-Рика     9°58′34″N   84°49′50″W
темп.,
°C
ветер,
м/с
пор.,
м/с
влажн.,
%
обл.,
%
осадки,
мм/ч
давл.,
гПа
погр.,
м
9 августа, вт
вт900:00+24ссв228055 1.1 101066
03:00+24ссв218277 0.0 100952
06:00+24св228227 0.0 101154
09:00+28зюз22655 0.0 1011677
12:00+29юз327097 0.2 1010678
15:00+29ю4375100 4.4 1008294
18:00+26юв2284100 10.8 101058
21:00+25св228580 0.9 101258
10 августа, ср
ср1000:00+24ссв2285100 0.9 101154
03:00+23ссв2285100 0.0 101056
06:00+24ссв1185100 0.0 101156
09:00+28юз1169100 0.0 1012650
12:00+28ююз327497 0.5 1011599
15:00+27ю3379100 4.7 1010325
18:00+25ю1291100 8.2 101167
21:00+24юв2288100 1.1 101368
11 августа, чт
чт1100:00+24ююв119187 1.4 101381
03:00+24св1189100 0.3 101172
06:00+24с128666 0.3 101185
09:00+28зсз237360 0.0 1012746
12:00+29зюз336723 0.6 1010761
15:00+27ююв2178100 5.7 1009168
18:00+24в2392100 9.3 1011148
21:00+23вюв2394100 3.4 1013147
12 августа, пт
пт1200:00+23вюв1294100 7.7 1013113
03:00+23юв1194100 0.7 101279
06:00+23вюв1191100 1.3 101354
09:00+23ююв2293100 2.4 1015156
12:00+24ююз1188100 3.5 1014244
15:00+24зюз1186100 0.8 1012281
18:00+23ссз1288100 0.8 101291
21:00+23ссз1185100 0.0 101491
13 августа, сб
сб1300:00+23ссв1185100 0.0 101393
03:00+22ссв1185100 0.0 101263
06:00+23ссв118383 0.0 101251
09:00+26юз227462 0.0 1014607
12:00+27ююз337186 0.1 1013832
15:00+27ю337161 0.5 1011862
18:00+25ююв238428 0.8 1012153
21:00+24в1286100 0.0 1014108